EN

Hourly Weather Altay

Today, 28 January, Thursday

Time Temperature Precipitation Wind Pressure Humidity
00:00 -8°C° 0 mm 7 mps 731 mmHg 78%
01:00 -8°C° 0 mm 7 mps 732 mmHg 77%
02:00 -8°C° 0 mm 8 mps 732 mmHg 76%
03:00 -10°C° 0 mm 8 mps 732 mmHg 76%
04:00 -10°C° 0 mm 8 mps 732 mmHg 76%
05:00 -10°C° 0 mm 8 mps 733 mmHg 76%
06:00 -10°C° 0 mm 8 mps 733 mmHg 77%
07:00 -10°C° 0 mm 8 mps 733 mmHg 77%
08:00 -10°C° 0 mm 8 mps 733 mmHg 76%
09:00 -10°C° 0 mm 8 mps 733 mmHg 75%
10:00 -10°C° 0 mm 8 mps 733 mmHg 75%
11:00 -9°C° 0 mm 9 mps 734 mmHg 74%
12:00 -9°C° 0 mm 9 mps 734 mmHg 73%
13:00 -8°C° 0 mm 8 mps 734 mmHg 74%
14:00 -8°C° 0 mm 8 mps 734 mmHg 75%
15:00 -8°C° 0 mm 8 mps 734 mmHg 75%
16:00 -9°C° 0 mm 7 mps 734 mmHg 76%
17:00 -9°C° 0 mm 7 mps 734 mmHg 77%
18:00 -9°C° 0 mm 6 mps 734 mmHg 78%
19:00 -9°C° 0 mm 6 mps 734 mmHg 78%
20:00 -9°C° 0 mm 7 mps 734 mmHg 78%
21:00 -9°C° 0 mm 7 mps 733 mmHg 77%
22:00 -9°C° 0 mm 7 mps 733 mmHg 77%
23:00 -9°C° 0 mm 7 mps 732 mmHg 77%

Tomorrow, 29 January, Friday

Time Temperature Precipitation Wind Pressure Humidity
00:00 -10°C° 0 mm 8 mps 732 mmHg 77%
01:00 -8°C° 0 mm 8 mps 732 mmHg 77%
02:00 -8°C° 0 mm 8 mps 731 mmHg 76%
03:00 -8°C° 0 mm 8 mps 731 mmHg 76%
04:00 -8°C° 0 mm 8 mps 731 mmHg 74%
05:00 -9°C° 0 mm 9 mps 730 mmHg 73%
06:00 -8°C° 0 mm 9 mps 730 mmHg 72%
07:00 -8°C° 0 mm 9 mps 730 mmHg 73%
08:00 -8°C° 0 mm 10 mps 729 mmHg 73%
09:00 -8°C° 0 mm 10 mps 729 mmHg 74%
10:00 -7°C° 0 mm 10 mps 728 mmHg 75%
11:00 -6°C° 0 mm 11 mps 728 mmHg 75%
12:00 -6°C° 0 mm 11 mps 727 mmHg 75%
13:00 -5°C° 0 mm 10 mps 727 mmHg 76%
14:00 -5°C° 0 mm 9 mps 728 mmHg 77%
15:00 -4°C° 0 mm 7 mps 728 mmHg 77%
16:00 -6°C° 0 mm 7 mps 729 mmHg 77%
17:00 -7°C° 0 mm 7 mps 729 mmHg 77%
18:00 -8°C° 0 mm 6 mps 730 mmHg 77%
19:00 -9°C° 0 mm 6 mps 730 mmHg 77%
20:00 -9°C° 0 mm 6 mps 731 mmHg 77%
21:00 -10°C° 0 mm 6 mps 731 mmHg 77%
22:00 -10°C° 0 mm 6 mps 731 mmHg 78%
23:00 -10°C° 0 mm 6 mps 731 mmHg 78%

Day after tomorrow, 30 January, Saturday

Time Temperature Precipitation Wind Pressure Humidity
00:00 -10°C° 0 mm 6 mps 731 mmHg 79%
01:00 -10°C° 0 mm 6 mps 731 mmHg 78%
02:00 -10°C° 0 mm 6 mps 731 mmHg 77%
03:00 -12°C° 0 mm 7 mps 731 mmHg 76%
04:00 -11°C° 0 mm 7 mps 731 mmHg 76%
05:00 -11°C° 0 mm 7 mps 731 mmHg 76%
06:00 -11°C° 0 mm 7 mps 732 mmHg 76%
07:00 -11°C° 0 mm 7 mps 732 mmHg 76%
08:00 -11°C° 0 mm 7 mps 731 mmHg 76%
09:00 -10°C° 0 mm 8 mps 731 mmHg 76%
10:00 -10°C° 0 mm 8 mps 731 mmHg 75%
11:00 -10°C° 0 mm 8 mps 731 mmHg 75%
12:00 -8°C° 0 mm 8 mps 731 mmHg 74%
13:00 -8°C° 0 mm 7 mps 732 mmHg 75%
14:00 -9°C° 0 mm 6 mps 732 mmHg 77%
15:00 -9°C° 0 mm 6 mps 732 mmHg 78%
16:00 -12°C° 0.1 mm 5 mps 733 mmHg 83%
17:00 -16°C° 0.1 mm 4 mps 734 mmHg 88%
18:00 -19°C° 0.1 mm 3 mps 735 mmHg 92%
19:00 -21°C° 0.1 mm 3 mps 736 mmHg 92%
20:00 -21°C° 0.1 mm 2 mps 737 mmHg 92%
21:00 -24°C° 0.1 mm 2 mps 738 mmHg 92%
22:00 -25°C° 0 mm 2 mps 738 mmHg 91%
23:00 -26°C° 0 mm 2 mps 739 mmHg 91%

31 January, Sunday

Time Temperature Precipitation Wind Pressure Humidity
00:00 -28°C° 0 mm 2 mps 740 mmHg 90%
01:00 -28°C° 0 mm 2 mps 740 mmHg 90%
02:00 -29°C° 0 mm 2 mps 740 mmHg 89%
03:00 -30°C° 0 mm 2 mps 741 mmHg 89%
04:00 -29°C° 0 mm 1 mps 741 mmHg 89%
05:00 -29°C° 0 mm 1 mps 741 mmHg 89%
06:00 -30°C° 0 mm 1 mps 741 mmHg 89%
07:00 -30°C° 0 mm 1 mps 741 mmHg 89%
08:00 -30°C° 0 mm 1 mps 741 mmHg 89%
09:00 -29°C° 0 mm 1 mps 741 mmHg 90%
10:00 -28°C° 0 mm 1 mps 741 mmHg 89%
11:00 -27°C° 0 mm 1 mps 740 mmHg 87%
12:00 -24°C° 0 mm 1 mps 740 mmHg 86%
13:00 -24°C° 0 mm 1 mps 739 mmHg 88%
14:00 -23°C° 0 mm 1 mps 739 mmHg 89%
15:00 -23°C° 0 mm 1 mps 738 mmHg 90%
16:00 -24°C° 0 mm 1 mps 738 mmHg 92%
17:00 -27°C° 0 mm 1 mps 738 mmHg 94%
18:00 -28°C° 0 mm 1 mps 738 mmHg 96%
19:00 -27°C° 0 mm 0 mps 737 mmHg 97%
20:00 -27°C° 0 mm 0 mps 737 mmHg 97%
21:00 -28°C° 0 mm 0 mps 736 mmHg 98%
22:00 -27°C° 0 mm 0 mps 736 mmHg 98%
23:00 -27°C° 0 mm 0 mps 735 mmHg 97%

1 February, Monday

Time Temperature Precipitation Wind Pressure Humidity
00:00 -27°C° 0 mm 0 mps 735 mmHg 97%
01:00 -27°C° 0 mm 0 mps 734 mmHg 97%
02:00 -27°C° 0 mm 0 mps 734 mmHg 97%
03:00 -27°C° 0 mm 0 mps 733 mmHg 97%
04:00 -26°C° 0 mm 0 mps 733 mmHg 97%
05:00 -26°C° 0 mm 0 mps 733 mmHg 96%
06:00 -25°C° 0 mm 0 mps 732 mmHg 95%
07:00 -25°C° 0 mm 0 mps 732 mmHg 95%
08:00 -24°C° 0 mm 0 mps 732 mmHg 94%
09:00 -24°C° 0 mm 0 mps 731 mmHg 93%
10:00 -22°C° 0 mm 0 mps 731 mmHg 91%
11:00 -21°C° 0 mm 0 mps 730 mmHg 90%
12:00 -20°C° 0 mm 0 mps 730 mmHg 89%
13:00 -19°C° 0 mm 0 mps 730 mmHg 88%
14:00 -19°C° 0 mm 0 mps 730 mmHg 88%
15:00 -18°C° 0 mm 0 mps 730 mmHg 87%
16:00 -19°C° 0 mm 0 mps 730 mmHg 89%
17:00 -21°C° 0 mm 0 mps 730 mmHg 91%
18:00 -22°C° 0 mm 0 mps 731 mmHg 94%
19:00 -22°C° 0 mm 0 mps 731 mmHg 94%
20:00 -22°C° 0 mm 0 mps 731 mmHg 94%
21:00 -22°C° 0 mm 0 mps 731 mmHg 94%
22:00 -21°C° 0 mm 0 mps 731 mmHg 94%
23:00 -21°C° 0 mm 0 mps 731 mmHg 95%

2 February, Tuesday

Time Temperature Precipitation Wind Pressure Humidity
00:00 -21°C° 0 mm 1 mps 732 mmHg 95%
01:00 -20°C° 0 mm 0 mps 732 mmHg 95%
02:00 -20°C° 0 mm 0 mps 732 mmHg 95%
03:00 -19°C° 0 mm 0 mps 732 mmHg 94%
04:00 -19°C° 0 mm 0 mps 732 mmHg 93%
05:00 -19°C° 0 mm 1 mps 733 mmHg 92%
06:00 -18°C° 0 mm 1 mps 733 mmHg 90%
07:00 -18°C° 0 mm 1 mps 733 mmHg 90%
08:00 -17°C° 0 mm 1 mps 733 mmHg 89%
09:00 -16°C° 0 mm 1 mps 733 mmHg 88%
10:00 -14°C° 0 mm 1 mps 733 mmHg 86%
11:00 -12°C° 0 mm 1 mps 732 mmHg 84%
12:00 -10°C° 0 mm 1 mps 732 mmHg 82%
13:00 -10°C° 0 mm 2 mps 731 mmHg 82%
14:00 -9°C° 0 mm 2 mps 731 mmHg 82%
15:00 -8°C° 0 mm 3 mps 731 mmHg 83%
16:00 -8°C° 0 mm 3 mps 731 mmHg 79%
17:00 -8°C° 0 mm 4 mps 731 mmHg 76%
18:00 -8°C° 0 mm 5 mps 731 mmHg 73%
19:00 -7°C° 0 mm 5 mps 730 mmHg 74%
20:00 -7°C° 0 mm 5 mps 730 mmHg 74%
21:00 -7°C° 0 mm 5 mps 729 mmHg 75%
22:00 -8°C° 0 mm 6 mps 730 mmHg 77%
23:00 -8°C° 0 mm 7 mps 730 mmHg 79%
Show more